OBJECT H

基本信息
目录编号:
44886
目录名称:
OBJECT H
国际标识:
2019-093H
轨道中心:
EARTH
物体状态:
在轨
发射日期:
2019-12-20 UTC
国别:
(TBD)
轨道信息
数据来源: 国际轨道数据
星历时间: 2026-09-05T13:45:59+0800
半长轴: 6959.051km
偏心率: 0.0012078
轨道倾角: 97.798°
近地点辐角: 153.351°
升交点赤经: 336.000°
平近点角: 206.833°
近地点: 572.508km
远地点: 589.32km
周期: 96.291分钟
每日圈数: 14.954702
详细信息
发射场:
TSC
轨道高度:
LEO
数据来源:
AOE Working Group
参考系:
TEME
时间系统:
UTC
历元类型:
SGP4
2D轨道图
3D轨道图
轨道高度分析图
轨道倾角分析图
轨道综合分析图
查看轨道综合分析图